Location: Ellerstadt
(49.4644°N, 8.2615°E)
Time: 02:48:41
(UTC+00:00)

ARGOS - Pass Details

Date: 03 March 2021
Orbit: 819 x 835 km, 98.4° (Epoch: 16 April)

Event Time Altitude Azimuth Distance (km) Brightness Sun altitude
Rises 17:49:55 0° 151° (SSE) 3,370 6.1 -6.8°
Reaches altitude 10° 17:52:18 10° 148° (SSE) 2,441 5.3 -7.2°
Maximum altitude 17:57:36 59° 70° (ENE) 964 3.2 -8.0°
Drops below altitude 10° 18:02:57 10° 352° (N) 2,460 5.7 -8.9°
Sets 18:05:21 0° 349° (N) 3,398 6.5 -9.3°
